This is the latest recevied weather packets stored in our database for station/object KC3UTO. If no packets are shown the sender has not sent any weather packets the latest 10 day(s).
| Time | Temp. | Humidity | Pressure | Rain* | Wind** | Luminosity | Snow |
|---|---|---|---|---|---|---|---|
| 1777836207 | 14.44° C | 27% | 1011.5 hPa | 0 mm | - | 214 W/m² | - |
| 1777835903 | 13.89° C | 30% | 1011.7 hPa | 0 mm | - | 166 W/m² | - |
| 1777835601 | 13.89° C | 29% | 1011.8 hPa | 0 mm | - | 242 W/m² | - |
| 1777835297 | 13.89° C | 29% | 1011.9 hPa | 0 mm | - | 164 W/m² | - |
| 1777834995 | 14.44° C | 30% | 1012 hPa | 0 mm | - | 181 W/m² | - |
| 1777834691 | 14.44° C | 30% | 1012 hPa | 0 mm | - | 811 W/m² | - |
| 1777834388 | 14.44° C | 29% | 1012 hPa | 0 mm | - | 940 W/m² | - |
| 1777834087 | 13.89° C | 31% | 1012 hPa | 0 mm | - | 777 W/m² | - |
| 1777833784 | 13.33° C | 31% | 1012 hPa | 0 mm | - | 899 W/m² | - |
| 1777833480 | 12.78° C | 30% | 1012.2 hPa | 0 mm | - | 200 W/m² | - |
| 1777833178 | 13.33° C | 30% | 1012.2 hPa | 0 mm | - | 267 W/m² | - |
| 1777832875 | 13.33° C | 29% | 1012.3 hPa | 0 mm | - | 922 W/m² | - |
| 1777832574 | 13.33° C | 30% | 1012.4 hPa | 0 mm | - | 164 W/m² | - |
| 1777832270 | 13.33° C | 31% | 1012.3 hPa | 0 mm | - | 900 W/m² | - |
| 1777831967 | 13.33° C | 30% | 1012.3 hPa | 0 mm | - | 913 W/m² | - |
| 1777831663 | 13.33° C | 30% | 1012.1 hPa | 0 mm | - | 977 W/m² | - |
| 1777831362 | 12.78° C | 30% | 1012.2 hPa | 0 mm | - | 991 W/m² | - |
| 1777831058 | 13.89° C | 30% | 1012.3 hPa | 0 mm | - | 879 W/m² | - |
| 1777830756 | 13.89° C | 30% | 1012.4 hPa | 0 mm | - | 975 W/m² | - |
| 1777830452 | 13.33° C | 29% | 1012.4 hPa | 0 mm | - | 988 W/m² | - |
| 1777830151 | 12.78° C | 32% | 1012.4 hPa | 0 mm | - | 1107 W/m² | - |
| 1777829850 | 12.78° C | 31% | 1012.6 hPa | 0 mm | - | 310 W/m² | - |
| 1777829546 | 12.78° C | 31% | 1012.7 hPa | 0 mm | - | 1042 W/m² | - |
| 1777829244 | 12.22° C | 31% | 1012.6 hPa | 0 mm | - | 1135 W/m² | - |
| 1777828941 | 12.78° C | 30% | 1012.6 hPa | 0 mm | - | 360 W/m² | - |
* Rain latest hour (hover to see other rain measurements)
** Current wind speed in m/s (hover to see current wind gust speed)